BAW183 EGLL-KJFK

Flight info

Callsign BAW183
Flight time N/A
Altitude 36000
Route CPT L9 BUCGO DCT FELCA DCT OFSOX DCT BANBA DCT LIMRI/M083F360 DCT 52N020W/M083F400 52N030W 51N040W 49N050W DCT JOOPY/N0483F400 N324B KANNI DCT PLYMM PARCH4
Aircraft B772/H-SDE2E3FGHIJ5LORVWXY/LB1D1

Departure

Time N/A
Airport London Heathrow Airport (EGLL)

Arrival

Time 2026-05-09 15:58
Airport John F. Kennedy International Airport (KJFK)
Time Latitude Longitude Altitude Speed Heading
2026-05-09 13:36 47.74373 -54.52849 37903 ft 448 kts 238°
2026-05-09 13:37 47.71702 -54.61149 37957 ft 448 kts 238°
2026-05-09 13:37 47.68981 -54.69574 37914 ft 450 kts 238°
2026-05-09 13:38 47.66283 -54.77900 37926 ft 451 kts 238°
2026-05-09 13:38 47.63558 -54.86287 37925 ft 452 kts 238°
2026-05-09 13:39 47.60826 -54.94669 37936 ft 452 kts 239°
2026-05-09 13:39 47.58081 -55.03062 37934 ft 453 kts 238°
2026-05-09 13:40 47.55330 -55.11445 37929 ft 452 kts 238°
2026-05-09 13:40 47.52577 -55.19805 37910 ft 452 kts 238°
2026-05-09 13:41 47.49821 -55.28149 37907 ft 451 kts 238°
2026-05-09 13:41 47.47059 -55.36482 37905 ft 452 kts 239°
2026-05-09 13:42 47.44289 -55.44814 37901 ft 452 kts 238°
2026-05-09 13:42 47.41513 -55.53135 37896 ft 452 kts 238°
2026-05-09 13:43 47.38726 -55.61463 37876 ft 453 kts 239°
2026-05-09 13:43 47.35925 -55.69804 37882 ft 454 kts 239°
2026-05-09 13:44 47.33111 -55.78158 37880 ft 455 kts 239°
2026-05-09 13:44 47.30287 -55.86516 37896 ft 456 kts 239°
2026-05-09 13:45 47.27456 -55.94872 37886 ft 456 kts 239°
2026-05-09 13:45 47.24634 -56.03169 37911 ft 456 kts 239°
2026-05-09 13:46 47.21784 -56.11522 37933 ft 456 kts 239°
2026-05-09 13:46 47.18931 -56.19859 37931 ft 456 kts 239°
2026-05-09 13:47 47.16077 -56.28175 37961 ft 456 kts 239°
2026-05-09 13:47 47.13214 -56.36485 37948 ft 455 kts 239°
2026-05-09 13:48 47.10350 -56.44775 37973 ft 455 kts 239°
2026-05-09 13:48 47.07479 -56.53057 37975 ft 456 kts 239°
2026-05-09 13:49 47.04599 -56.61339 38001 ft 456 kts 239°
2026-05-09 13:49 47.01714 -56.69608 38002 ft 456 kts 239°
2026-05-09 13:50 46.98823 -56.77871 38007 ft 456 kts 239°
2026-05-09 13:50 46.95923 -56.86132 38014 ft 456 kts 239°
2026-05-09 13:51 46.93014 -56.94395 37993 ft 457 kts 239°
2026-05-09 13:51 46.90098 -57.02650 38020 ft 457 kts 239°
2026-05-09 13:52 46.87191 -57.10855 38022 ft 457 kts 239°
2026-05-09 13:52 46.84737 -57.17760 38021 ft 458 kts 239°
2026-05-09 13:53 46.81299 -57.27406 38010 ft 458 kts 239°
2026-05-09 13:53 46.78370 -57.35597 38032 ft 458 kts 239°
2026-05-09 13:54 46.75413 -57.43838 38035 ft 459 kts 239°
2026-05-09 13:54 46.72947 -57.50694 38038 ft 459 kts 240°
2026-05-09 13:55 46.69970 -57.58945 38044 ft 460 kts 239°
2026-05-09 13:55 46.66991 -57.67178 38035 ft 460 kts 239°
2026-05-09 13:56 46.64002 -57.75411 38038 ft 460 kts 239°
2026-05-09 13:56 46.61007 -57.83636 38043 ft 460 kts 239°
2026-05-09 13:57 46.58008 -57.91846 38046 ft 460 kts 240°
2026-05-09 13:57 46.55008 -58.00037 38044 ft 459 kts 240°
2026-05-09 13:58 46.51997 -58.08229 38044 ft 459 kts 239°
2026-05-09 13:58 46.48988 -58.16394 38047 ft 459 kts 239°
2026-05-09 13:59 46.45971 -58.24551 38050 ft 459 kts 239°
2026-05-09 13:59 46.42946 -58.32708 38057 ft 459 kts 240°
2026-05-09 14:00 46.40430 -58.39474 38057 ft 459 kts 239°
2026-05-09 14:00 46.36879 -58.48995 38060 ft 459 kts 239°
2026-05-09 14:01 46.33838 -58.57121 38070 ft 459 kts 240°
2026-05-09 14:01 46.30792 -58.65237 38061 ft 459 kts 240°
2026-05-09 14:02 46.27761 -58.73286 38058 ft 459 kts 240°
2026-05-09 14:02 46.24707 -58.81376 38061 ft 459 kts 239°
2026-05-09 14:03 46.21646 -58.89455 38063 ft 458 kts 240°
2026-05-09 14:03 46.18583 -58.97519 38066 ft 458 kts 240°
2026-05-09 14:04 46.15515 -59.05574 38061 ft 457 kts 240°
2026-05-09 14:04 46.12445 -59.13608 38083 ft 457 kts 240°
2026-05-09 14:05 46.09367 -59.21640 38068 ft 457 kts 240°
2026-05-09 14:05 46.06307 -59.29601 38065 ft 457 kts 240°
2026-05-09 14:06 46.03223 -59.37600 38058 ft 457 kts 240°
2026-05-09 14:06 46.00134 -59.45593 38053 ft 457 kts 240°
2026-05-09 14:07 45.97042 -59.53567 38048 ft 457 kts 240°
2026-05-09 14:07 45.93982 -59.61429 38061 ft 455 kts 239°
2026-05-09 14:08 45.90346 -59.68793 38065 ft 454 kts 232°
2026-05-09 14:08 45.86671 -59.76166 38043 ft 455 kts 236°
2026-05-09 14:09 45.83352 -59.83885 38061 ft 455 kts 239°
2026-05-09 14:09 45.80220 -59.91768 38054 ft 455 kts 240°
2026-05-09 14:10 45.75577 -60.03632 38071 ft 455 kts 240°
2026-05-09 14:11 45.72486 -60.11464 38072 ft 455 kts 240°
2026-05-09 14:11 45.69357 -60.19342 38038 ft 455 kts 240°
2026-05-09 14:12 45.66223 -60.27205 38059 ft 455 kts 240°
2026-05-09 14:12 45.63085 -60.35054 38062 ft 455 kts 240°
2026-05-09 14:13 45.59993 -60.42769 38061 ft 455 kts 240°
2026-05-09 14:15 45.47385 -60.74008 38055 ft 455 kts 240°
2026-05-09 14:15 45.44217 -60.81803 38062 ft 455 kts 240°
2026-05-09 14:16 45.41038 -60.89603 38058 ft 455 kts 240°
2026-05-09 14:16 45.37854 -60.97394 38068 ft 456 kts 240°
2026-05-09 14:17 45.34662 -61.05182 38069 ft 456 kts 240°
2026-05-09 14:17 45.31460 -61.12973 38078 ft 456 kts 240°
2026-05-09 14:18 45.28257 -61.20744 38065 ft 456 kts 240°
2026-05-09 14:18 45.25048 -61.28508 38075 ft 456 kts 240°
2026-05-09 14:19 45.21838 -61.36254 38079 ft 455 kts 240°
2026-05-09 14:19 45.18623 -61.43992 38081 ft 455 kts 240°
2026-05-09 14:20 45.15404 -61.51714 38072 ft 455 kts 240°
2026-05-09 14:20 45.12184 -61.59420 38081 ft 455 kts 240°
2026-05-09 14:21 45.07345 -61.70963 38087 ft 455 kts 239°
2026-05-09 14:21 45.04108 -61.78655 38085 ft 454 kts 239°
2026-05-09 14:22 45.00894 -61.86274 38089 ft 454 kts 239°
2026-05-09 14:22 44.97653 -61.93937 38096 ft 454 kts 239°
2026-05-09 14:23 44.94407 -62.01590 38093 ft 454 kts 239°
2026-05-09 14:23 44.91154 -62.09238 38096 ft 454 kts 239°
2026-05-09 14:24 44.87893 -62.16884 38097 ft 454 kts 239°
2026-05-09 14:24 44.84630 -62.24516 38098 ft 454 kts 239°
2026-05-09 14:25 44.81361 -62.32140 38105 ft 455 kts 239°
2026-05-09 14:25 44.78086 -62.39757 38107 ft 455 kts 239°
2026-05-09 14:26 44.74802 -62.47376 38097 ft 455 kts 239°
2026-05-09 14:26 44.71516 -62.54979 38101 ft 455 kts 239°
2026-05-09 14:27 44.68242 -62.62534 38101 ft 455 kts 239°
2026-05-09 14:27 44.64924 -62.70170 38103 ft 455 kts 239°
2026-05-09 14:28 44.61618 -62.77757 38092 ft 455 kts 239°
2026-05-09 14:28 44.58313 -62.85322 38101 ft 455 kts 239°
2026-05-09 14:29 44.55028 -62.92822 38102 ft 454 kts 239°
2026-05-09 14:29 44.51716 -63.00365 38105 ft 454 kts 239°
2026-05-09 14:30 44.48401 -63.07893 38093 ft 453 kts 239°
2026-05-09 14:30 44.45087 -63.15398 38099 ft 453 kts 239°
2026-05-09 14:31 44.41770 -63.22894 38120 ft 453 kts 239°
2026-05-09 14:31 44.38445 -63.30387 38110 ft 454 kts 239°
2026-05-09 14:32 44.35113 -63.37874 38078 ft 453 kts 240°
2026-05-09 14:32 44.31779 -63.45348 38097 ft 453 kts 240°
2026-05-09 14:33 44.28443 -63.52807 38106 ft 453 kts 240°
2026-05-09 14:33 44.25104 -63.60253 38102 ft 453 kts 239°
2026-05-09 14:34 44.21762 -63.67687 38109 ft 452 kts 240°
2026-05-09 14:34 44.18417 -63.75107 38117 ft 452 kts 240°
2026-05-09 14:35 44.15070 -63.82514 38112 ft 451 kts 239°
2026-05-09 14:35 44.11721 -63.89906 38104 ft 451 kts 239°
2026-05-09 14:36 44.08372 -63.97279 38114 ft 451 kts 240°
2026-05-09 14:36 44.05017 -64.04647 38123 ft 450 kts 240°
2026-05-09 14:37 44.01666 -64.11987 38121 ft 449 kts 240°
2026-05-09 14:37 43.98312 -64.19315 38118 ft 449 kts 240°
2026-05-09 14:38 43.94981 -64.26576 38111 ft 448 kts 240°
2026-05-09 14:38 43.91629 -64.33863 38111 ft 447 kts 240°
2026-05-09 14:39 43.88278 -64.41128 38110 ft 447 kts 240°
2026-05-09 14:39 43.84933 -64.48365 38111 ft 446 kts 240°
2026-05-09 14:40 43.81581 -64.55597 38107 ft 446 kts 240°
2026-05-09 14:40 43.78231 -64.62809 38105 ft 446 kts 240°
2026-05-09 14:41 43.74875 -64.70015 38119 ft 445 kts 240°
2026-05-09 14:41 43.72079 -64.76004 38108 ft 446 kts 240°
2026-05-09 14:42 43.68718 -64.83188 38103 ft 445 kts 240°
2026-05-09 14:42 43.65349 -64.90372 38109 ft 445 kts 240°
2026-05-09 14:43 43.61982 -64.97532 38111 ft 444 kts 240°
2026-05-09 14:43 43.58613 -65.04682 38117 ft 444 kts 240°
2026-05-09 14:44 43.55241 -65.11818 38110 ft 444 kts 240°
2026-05-09 14:44 43.51869 -65.18937 38118 ft 443 kts 240°
2026-05-09 14:45 43.48500 -65.26034 38121 ft 443 kts 240°
2026-05-09 14:45 43.45126 -65.33124 38119 ft 442 kts 240°
2026-05-09 14:46 43.41773 -65.40152 38136 ft 442 kts 240°
2026-05-09 14:46 43.38399 -65.47207 38120 ft 441 kts 240°
2026-05-09 14:47 43.35024 -65.54249 38129 ft 441 kts 240°
2026-05-09 14:47 43.31653 -65.61265 38130 ft 440 kts 240°
2026-05-09 14:48 43.28283 -65.68261 38116 ft 439 kts 240°
2026-05-09 14:48 43.24911 -65.75246 38121 ft 438 kts 240°
2026-05-09 14:49 43.21549 -65.82192 38125 ft 437 kts 240°
2026-05-09 14:49 43.18186 -65.89126 38125 ft 437 kts 240°
2026-05-09 14:50 43.14821 -65.96047 38117 ft 436 kts 240°
2026-05-09 14:50 43.11459 -66.02947 38125 ft 435 kts 240°
2026-05-09 14:51 43.08095 -66.09834 38144 ft 435 kts 240°
2026-05-09 14:51 43.04728 -66.16711 38130 ft 434 kts 240°
2026-05-09 14:52 43.01367 -66.23559 38117 ft 433 kts 240°
2026-05-09 14:52 42.98009 -66.30387 38123 ft 432 kts 240°
2026-05-09 14:53 42.94652 -66.37196 38127 ft 432 kts 240°
2026-05-09 14:53 42.91298 -66.43986 38127 ft 431 kts 240°
2026-05-09 14:54 42.87942 -66.50761 38129 ft 431 kts 240°
2026-05-09 14:54 42.84608 -66.57480 38125 ft 430 kts 240°
2026-05-09 14:55 42.81248 -66.64233 38123 ft 430 kts 240°
2026-05-09 14:55 42.77888 -66.70974 38126 ft 430 kts 240°
2026-05-09 14:56 42.74522 -66.77709 38134 ft 430 kts 240°
2026-05-09 14:56 42.71159 -66.84428 38125 ft 430 kts 240°
2026-05-09 14:57 42.67791 -66.91141 38123 ft 430 kts 240°
2026-05-09 14:57 42.64725 -66.97987 38129 ft 424 kts 249°
2026-05-09 14:58 42.62580 -67.05325 38101 ft 421 kts 255°
2026-05-09 14:58 42.61220 -67.13014 38116 ft 419 kts 260°
2026-05-09 14:59 42.60034 -67.20766 38121 ft 419 kts 260°
2026-05-09 14:59 42.58836 -67.28517 38111 ft 420 kts 260°
2026-05-09 15:00 42.57615 -67.36272 38132 ft 420 kts 260°
2026-05-09 15:00 42.56382 -67.44017 38117 ft 420 kts 259°
2026-05-09 15:01 42.54523 -67.55612 38137 ft 420 kts 259°
2026-05-09 15:02 42.53277 -67.63344 38116 ft 419 kts 259°
2026-05-09 15:02 42.52028 -67.71057 38113 ft 419 kts 259°
2026-05-09 15:03 42.50775 -67.78761 38108 ft 418 kts 259°
2026-05-09 15:03 42.49526 -67.86404 38108 ft 418 kts 259°
2026-05-09 15:04 42.48265 -67.94085 38104 ft 417 kts 259°
2026-05-09 15:06 42.43186 -68.24698 38103 ft 416 kts 259°
2026-05-09 15:06 42.41903 -68.32342 38103 ft 416 kts 259°
2026-05-09 15:07 42.40619 -68.39964 38098 ft 416 kts 259°
2026-05-09 15:07 42.39337 -68.47539 38095 ft 415 kts 259°
2026-05-09 15:08 42.38041 -68.55163 38115 ft 415 kts 259°
2026-05-09 15:08 42.36093 -68.66562 38083 ft 414 kts 258°
2026-05-09 15:10 42.30855 -68.96857 38100 ft 413 kts 258°
2026-05-09 15:11 42.29535 -69.04412 38084 ft 413 kts 258°
2026-05-09 15:11 42.28212 -69.11955 38049 ft 413 kts 258°
2026-05-09 15:12 42.26884 -69.19495 38086 ft 413 kts 258°
2026-05-09 15:12 42.25551 -69.27029 38090 ft 413 kts 258°
2026-05-09 15:13 42.24212 -69.34568 38084 ft 413 kts 258°
2026-05-09 15:13 42.22868 -69.42101 38076 ft 413 kts 258°
2026-05-09 15:14 42.21529 -69.49580 38076 ft 413 kts 258°
2026-05-09 15:14 42.20176 -69.57102 38089 ft 413 kts 258°
2026-05-09 15:15 42.19044 -69.63372 38068 ft 413 kts 258°
2026-05-09 15:15 42.17462 -69.72103 38062 ft 412 kts 257°
2026-05-09 15:16 42.16095 -69.79614 38067 ft 412 kts 257°
2026-05-09 15:16 42.14726 -69.87108 38086 ft 412 kts 257°
2026-05-09 15:17 42.13350 -69.94610 38062 ft 413 kts 257°
2026-05-09 15:17 42.11966 -70.02123 38059 ft 413 kts 257°
2026-05-09 15:18 42.10580 -70.09620 38055 ft 413 kts 257°
2026-05-09 15:18 42.09187 -70.17122 38047 ft 413 kts 257°
2026-05-09 15:19 42.07791 -70.24615 38060 ft 412 kts 257°
2026-05-09 15:19 42.06392 -70.32095 38040 ft 412 kts 257°
2026-05-09 15:20 42.04258 -70.43305 38037 ft 413 kts 254°
2026-05-09 15:21 42.02143 -70.50449 38035 ft 414 kts 249°
2026-05-09 15:21 41.99813 -70.57529 38038 ft 415 kts 249°
2026-05-09 15:22 41.97512 -70.64643 38015 ft 414 kts 249°
2026-05-09 15:22 41.95252 -70.71751 38009 ft 413 kts 249°
2026-05-09 15:23 41.93001 -70.78858 38021 ft 414 kts 249°
2026-05-09 15:23 41.90743 -70.85975 38016 ft 414 kts 249°
2026-05-09 15:24 41.88478 -70.93090 38036 ft 415 kts 249°
2026-05-09 15:24 41.86207 -71.00207 38024 ft 416 kts 249°
2026-05-09 15:25 41.83929 -71.07322 37983 ft 415 kts 249°
2026-05-09 15:25 41.81651 -71.14421 38014 ft 414 kts 249°
2026-05-09 15:26 41.78239 -71.25022 38032 ft 413 kts 249°
2026-05-09 15:26 41.77098 -71.28556 37712 ft 415 kts 249°
2026-05-09 15:26 41.75949 -71.32117 36984 ft 414 kts 249°
2026-05-09 15:27 41.74827 -71.35581 36439 ft 407 kts 249°
2026-05-09 15:27 41.73737 -71.38941 35895 ft 402 kts 249°
2026-05-09 15:27 41.72483 -71.42199 35347 ft 399 kts 239°
2026-05-09 15:27 41.70707 -71.45058 34825 ft 402 kts 227°
2026-05-09 15:28 41.68567 -71.47437 34321 ft 398 kts 225°
2026-05-09 15:28 41.66421 -71.49765 33778 ft 394 kts 225°
2026-05-09 15:28 41.64324 -71.52060 33204 ft 390 kts 225°
2026-05-09 15:28 41.62240 -71.54357 32699 ft 385 kts 226°
2026-05-09 15:29 41.60190 -71.56628 32220 ft 381 kts 226°
2026-05-09 15:29 41.58163 -71.58879 31718 ft 377 kts 226°
2026-05-09 15:29 41.56167 -71.61099 31234 ft 373 kts 226°
2026-05-09 15:29 41.54184 -71.63303 30761 ft 370 kts 226°
2026-05-09 15:30 41.52216 -71.65491 30268 ft 366 kts 226°
2026-05-09 15:30 41.50273 -71.67650 29761 ft 362 kts 226°
2026-05-09 15:30 41.48994 -71.69070 29407 ft 360 kts 226°
2026-05-09 15:30 41.47076 -71.71197 28912 ft 356 kts 226°
2026-05-09 15:31 41.45181 -71.73297 28394 ft 353 kts 226°
2026-05-09 15:31 41.43351 -71.75324 27902 ft 350 kts 226°
2026-05-09 15:31 41.41482 -71.77392 27401 ft 348 kts 226°
2026-05-09 15:31 41.39631 -71.79440 26905 ft 345 kts 226°
2026-05-09 15:32 41.37787 -71.81478 26421 ft 343 kts 226°
2026-05-09 15:32 41.35953 -71.83504 25946 ft 342 kts 225°
2026-05-09 15:32 41.34127 -71.85520 25480 ft 340 kts 225°
2026-05-09 15:32 41.32307 -71.87527 25022 ft 339 kts 225°
2026-05-09 15:33 41.30493 -71.89524 24562 ft 338 kts 225°
2026-05-09 15:33 41.28688 -71.91511 24139 ft 337 kts 225°
2026-05-09 15:33 41.26889 -71.93487 23737 ft 334 kts 225°
2026-05-09 15:33 41.25138 -71.95409 23351 ft 331 kts 225°
2026-05-09 15:34 41.23370 -71.97348 22962 ft 328 kts 225°
2026-05-09 15:34 41.21613 -71.99277 22595 ft 328 kts 225°
2026-05-09 15:34 41.19851 -72.01209 22244 ft 327 kts 225°
2026-05-09 15:34 41.18096 -72.03133 21900 ft 327 kts 225°
2026-05-09 15:35 41.16346 -72.05051 21571 ft 327 kts 225°
2026-05-09 15:35 41.14590 -72.06972 21229 ft 327 kts 225°
2026-05-09 15:35 41.12836 -72.08889 20879 ft 327 kts 225°
2026-05-09 15:35 41.11106 -72.10825 20523 ft 320 kts 229°
2026-05-09 15:36 41.09774 -72.13133 20203 ft 314 kts 243°
2026-05-09 15:36 41.08923 -72.15782 19877 ft 312 kts 252°
2026-05-09 15:36 41.08245 -72.18510 19549 ft 312 kts 253°
2026-05-09 15:36 41.07586 -72.21247 19218 ft 312 kts 253°
2026-05-09 15:37 41.06929 -72.23981 18889 ft 311 kts 253°
2026-05-09 15:37 41.06268 -72.26714 18571 ft 311 kts 252°
2026-05-09 15:37 41.05602 -72.29442 18229 ft 311 kts 252°
2026-05-09 15:37 41.04934 -72.32160 17858 ft 310 kts 252°
2026-05-09 15:38 41.04264 -72.34874 17496 ft 309 kts 252°
2026-05-09 15:38 41.03594 -72.37575 17157 ft 308 kts 252°
2026-05-09 15:38 41.02927 -72.40256 16833 ft 306 kts 251°
2026-05-09 15:38 41.02270 -72.42894 16520 ft 305 kts 251°
2026-05-09 15:39 41.01606 -72.45554 16204 ft 303 kts 251°
2026-05-09 15:39 41.00936 -72.48231 15878 ft 302 kts 251°
2026-05-09 15:39 41.00283 -72.50841 15578 ft 302 kts 251°
2026-05-09 15:39 40.99624 -72.53469 15253 ft 301 kts 250°
2026-05-09 15:40 40.98965 -72.56093 14940 ft 300 kts 250°
2026-05-09 15:40 40.98299 -72.58745 14621 ft 300 kts 250°
2026-05-09 15:40 40.97650 -72.61326 14325 ft 299 kts 250°
2026-05-09 15:40 40.96983 -72.63975 13996 ft 299 kts 249°
2026-05-09 15:41 40.96325 -72.66587 13662 ft 298 kts 249°
2026-05-09 15:41 40.95676 -72.69163 13311 ft 293 kts 249°
2026-05-09 15:41 40.95036 -72.71698 12976 ft 288 kts 249°
2026-05-09 15:41 40.94410 -72.74170 12705 ft 285 kts 249°
2026-05-09 15:42 40.93778 -72.76669 12379 ft 281 kts 248°
2026-05-09 15:42 40.93071 -72.79019 12114 ft 267 kts 236°
2026-05-09 15:42 40.91940 -72.80844 12049 ft 256 kts 223°
2026-05-09 15:42 40.90532 -72.82344 12043 ft 258 kts 217°
2026-05-09 15:43 40.89096 -72.83712 12017 ft 257 kts 217°
2026-05-09 15:43 40.87629 -72.85089 12024 ft 255 kts 217°
2026-05-09 15:43 40.86201 -72.86432 12025 ft 255 kts 217°
2026-05-09 15:43 40.84762 -72.87791 12016 ft 253 kts 217°
2026-05-09 15:44 40.84035 -72.88480 11904 ft 253 kts 217°
2026-05-09 15:44 40.83218 -72.89256 11749 ft 255 kts 217°
2026-05-09 15:44 40.81773 -72.90632 11457 ft 257 kts 217°
2026-05-09 15:44 40.80322 -72.92016 11163 ft 257 kts 216°
2026-05-09 15:45 40.78882 -72.93392 10867 ft 255 kts 216°
2026-05-09 15:45 40.77450 -72.94760 10556 ft 253 kts 216°
2026-05-09 15:45 40.76034 -72.96114 10269 ft 251 kts 216°
2026-05-09 15:45 40.74627 -72.97458 9986 ft 248 kts 216°
2026-05-09 15:46 40.73235 -72.98787 9652 ft 246 kts 215°
2026-05-09 15:46 40.71855 -73.00102 9336 ft 244 kts 215°
2026-05-09 15:46 40.70485 -73.01408 8983 ft 243 kts 216°
2026-05-09 15:46 40.69303 -73.02945 8638 ft 243 kts 237°
2026-05-09 15:47 40.68821 -73.05120 8367 ft 258 kts 264°
2026-05-09 15:47 40.69173 -73.07484 8072 ft 270 kts 283°
2026-05-09 15:47 40.69872 -73.09795 7782 ft 274 kts 286°
2026-05-09 15:47 40.70630 -73.12105 7465 ft 273 kts 287°
2026-05-09 15:48 40.71389 -73.14395 7156 ft 272 kts 287°
2026-05-09 15:48 40.72147 -73.16672 6831 ft 270 kts 287°
2026-05-09 15:48 40.72901 -73.18935 6507 ft 269 kts 287°
2026-05-09 15:48 40.73656 -73.21182 6194 ft 268 kts 287°
2026-05-09 15:49 40.74405 -73.23427 5871 ft 267 kts 287°
2026-05-09 15:49 40.75149 -73.25667 5528 ft 266 kts 287°
2026-05-09 15:49 40.75886 -73.27893 5198 ft 264 kts 287°
2026-05-09 15:49 40.76621 -73.30109 4915 ft 263 kts 287°
2026-05-09 15:50 40.77340 -73.32267 4560 ft 251 kts 287°
2026-05-09 15:50 40.78035 -73.34348 4224 ft 247 kts 287°
2026-05-09 15:50 40.78721 -73.36420 4058 ft 247 kts 287°
2026-05-09 15:50 40.79406 -73.38511 4020 ft 251 kts 287°
2026-05-09 15:51 40.80096 -73.40630 4005 ft 251 kts 287°
2026-05-09 15:51 40.80782 -73.42744 3993 ft 250 kts 287°
2026-05-09 15:51 40.81235 -73.44927 3912 ft 245 kts 272°
2026-05-09 15:51 40.81357 -73.47156 3741 ft 241 kts 268°
2026-05-09 15:52 40.81479 -73.51467 3405 ft 221 kts 268°
2026-05-09 15:52 40.81534 -73.53425 3221 ft 206 kts 267°
2026-05-09 15:52 40.81587 -73.55252 3034 ft 195 kts 267°
2026-05-09 15:53 40.81637 -73.56998 2916 ft 192 kts 267°
2026-05-09 15:53 40.81489 -73.58724 2847 ft 191 kts 244°
2026-05-09 15:53 40.80826 -73.60204 2769 ft 184 kts 237°
2026-05-09 15:53 40.80147 -73.61629 2514 ft 182 kts 237°
2026-05-09 15:54 40.79492 -73.63031 2312 ft 176 kts 234°
2026-05-09 15:54 40.78630 -73.64082 2100 ft 167 kts 214°
2026-05-09 15:54 40.77697 -73.64954 2122 ft 161 kts 218°
2026-05-09 15:54 40.76775 -73.65813 2076 ft 165 kts 216°
2026-05-09 15:55 40.75798 -73.66624 2042 ft 166 kts 213°
2026-05-09 15:55 40.74809 -73.67411 2036 ft 166 kts 213°
2026-05-09 15:55 40.73821 -73.68191 2010 ft 166 kts 213°
2026-05-09 15:55 40.72832 -73.68968 1946 ft 166 kts 213°
2026-05-09 15:56 40.71839 -73.69748 1708 ft 167 kts 213°
2026-05-09 15:56 40.70841 -73.70532 1472 ft 167 kts 212°
2026-05-09 15:56 40.69882 -73.71284 1241 ft 153 kts 212°
2026-05-09 15:56 40.69019 -73.71961 1057 ft 136 kts 212°
2026-05-09 15:57 40.68223 -73.72587 905 ft 133 kts 211°
2026-05-09 15:57 40.67428 -73.73214 700 ft 133 kts 211°
2026-05-09 15:57 40.66619 -73.73845 531 ft 134 kts 210°
2026-05-09 15:57 40.65822 -73.74470 364 ft 134 kts 209°
2026-05-09 15:58 40.65020 -73.75100 174 ft 132 kts 208°
2026-05-09 15:58 40.64226 -73.75718 39 ft 130 kts 209°
2026-05-09 15:58 40.63539 -73.76257 26 ft 97 kts 211°
2026-05-09 15:58 40.63108 -73.76598 29 ft 39 kts 217°
2026-05-09 15:59 40.62969 -73.76804 28 ft 15 kts 238°
2026-05-09 15:59 40.62928 -73.76926 27 ft 14 kts 266°
2026-05-09 15:59 40.62960 -73.77035 28 ft 12 kts 301°
2026-05-09 15:59 40.63003 -73.77131 27 ft 12 kts 301°
2026-05-09 16:00 40.63047 -73.77227 28 ft 12 kts 301°
2026-05-09 16:00 40.63061 -73.77258 30 ft 12 kts 301°
2026-05-09 16:00 40.63134 -73.77419 30 ft 12 kts 301°
2026-05-09 16:00 40.63177 -73.77515 26 ft 12 kts 301°
2026-05-09 16:01 40.63213 -73.77594 27 ft 5 kts 301°
2026-05-09 16:01 40.63214 -73.77596 27 ft 0 kts 301°
2026-05-09 16:02 40.63219 -73.77606 27 ft 5 kts 301°
2026-05-09 16:02 40.63252 -73.77681 28 ft 14 kts 301°
2026-05-09 16:03 40.63305 -73.77797 28 ft 15 kts 301°
2026-05-09 16:03 40.63351 -73.77899 31 ft 12 kts 301°
2026-05-09 16:03 40.63393 -73.77998 31 ft 12 kts 299°
2026-05-09 16:03 40.63436 -73.78097 30 ft 12 kts 300°
2026-05-09 16:04 40.63480 -73.78195 30 ft 12 kts 300°
2026-05-09 16:04 40.63513 -73.78263 31 ft 8 kts 311°
2026-05-09 16:04 40.63565 -73.78264 30 ft 8 kts 20°
2026-05-09 16:04 40.63620 -73.78256 28 ft 8 kts 358°
2026-05-09 16:05 40.63677 -73.78263 28 ft 8 kts 352°
2026-05-09 16:05 40.63735 -73.78273 28 ft 11 kts 353°
2026-05-09 16:05 40.63842 -73.78290 30 ft 11 kts 353°
2026-05-09 16:05 40.63919 -73.78316 27 ft 11 kts 333°
2026-05-09 16:06 40.63977 -73.78357 30 ft 9 kts 335°
2026-05-09 16:06 40.64025 -73.78336 27 ft 9 kts 70°
2026-05-09 16:06 40.64041 -73.78288 29 ft 4 kts 64°
2026-05-09 16:06 40.64045 -73.78277 27 ft 0 kts 63°